TDRS 5

Last updated on July 6, 2021, 3:26 p.m. UTC

1 21639U 91054B   21186.74741185  .00000085  00000-0  00000-0 0  9998
2 21639  14.2526   7.4432 0024476  11.2268   6.8246  1.00278662109598
UTC
Height (km)
Latitude
Longitude
Inclination
Orbital Period
UTC large
Height (km)
Speed (km/s)
/
Latitude / Longitude
Inclination (degrees)
Orbital Period (minutes)
Azimuth
Elevation
Range (km)
Doppler Factor
iOS Compass Heading
iOS Angle